Regional Weather Roundup
Issued by NWS Northern Indiana

Home | Current Version | Previous Version | Text Only | Print | Product List | Glossary Off
Versions: 1 2 3 4 5 6 7 8 9 10 11 12 13 14 15 16 17 18 19 20 21 22 23 24 25 26 27 28 29 30 31 32 33 34 35 36 37 38 39 40 41 42 43 44 45 46 47 48 49 50

000
ASUS43 KIWX 241010
RWRIWX

KIWX WEATHER ROUNDUP
NATIONAL WEATHER SERVICE NORTHERN INDIANA
600 AM EDT MON JUL 24 2017

NOTE: "FAIR" INDICATES FEW OR NO CLOUDS BELOW 12,000 FEET WITH NO
SIGNIFICANT WEATHER AND/OR OBSTRUCTIONS TO VISIBILITY.

* THESE STATIONS ARE NOT UNDER NWS QUALITY CONTROL. THEY ALSO MAY NOT
  REPORT WEATHER SUCH AS PRECIPITATION OR FOG.

INZ001>027-241100-
NORTHERN INDIANA

CITY           SKY/WX    TMP DP  RH WIND       PRES   REMARKS
GARY*          CLOUDY    70  61  73 N14       29.94R
VALPARAISO     CLOUDY    69  64  84 N5        29.93R
MICHIGAN CITY* CLOUDY    68  63  83 N9        29.93R
LAPORTE*       MOCLDY    67  64  88 N10       29.93R
KNOX*          CLOUDY    66  64  94 N3        29.92R
SOUTH BEND     MOCLDY    65  63  93 N6        29.92R
GOSHEN         CLOUDY    66  62  87 NW8       29.90R
MONTICELLO*    MOCLDY    67  65  95 N8        29.90R
LOGANSPORT*    CLOUDY    66  66 100 N8        29.91R
ROCHESTER*     CLEAR     68  68 100 NW8       29.91R
WARSAW*        CLOUDY    64  64 100 N8        29.90R
AUBURN*        CLEAR     66  63  88 NW8       29.88R
FORT WAYNE     MOCLDY    68  64  87 NW7       29.88R
HUNTINGTON*    PTCLDY    65  64  96 NW3       29.88R
PERU/GRISSOM   MOCLDY    67  67 100 N7        29.88R
MARION*        PTCLDY    63  63 100 NW5       29.89S

$$
INZ028>050-241100-
CENTRAL INDIANA

CITY           SKY/WX    TMP DP  RH WIND       PRES   REMARKS
LAFAYETTE      CLEAR     64  64 100 CALM      29.90R
KOKOMO*          N/A     67  65  93 MISG        N/A
MUNCIE*        CLEAR     67  63  87 NW5       29.88R
INDIANAPOLIS   PTCLDY    68  64  87 N9        29.87R

$$
MIZ043>046-050>051-056>058-064>065-071>073-077>080-241100-
SOUTHWEST LOWER MICHIGAN

CITY           SKY/WX    TMP DP  RH WIND       PRES   REMARKS
BATTLE CREEK   MOCLDY    63  62  97 N6        29.91R
BENTON HARBOR  MOCLDY    67  61  81 VRB6      29.92R
COLDWATER*     PTCLDY    64  64 100 NW5       29.89R
HILLSDALE*     PTCLDY    63  59  88 NW8       29.88R
HOLLAND        CLEAR     63  60  90 VRB3      29.93R
GRAND RAPIDS   PTCLDY    61  60  97 NW6       29.91R
KALAMAZOO      CLOUDY    64  60  87 N10       29.92R
STURGIS*       PTCLDY    63  62  97 MISG      29.89R
THREE RIVERS*  FAIR      63  62  95 NW8       29.91R

$$
OHZ001>008-015>018-024>025-241100-
NORTHWEST OHIO

CITY           SKY/WX    TMP DP  RH WIND       PRES   REMARKS
WAUSEON*       FAIR      66  64  94 N6        29.85R
DEFIANCE       MOCLDY   N/A N/A N/A NW8       29.86R
FINDLAY        CLEAR     68  64  87 W6        29.83R
TOLEDO EXPRESS PTCLDY    66  65  96 N8        29.84R
TOLEDO METCALF PTCLDY    69  65  86 NW8       29.84R
LIMA           CLEAR     66  66 100 W3        29.85R

$$
AND FOR LAKE MICHIGAN COASTAL AND OPEN LAKE BUOY OBSERVATIONS

STATION/POSITION TEMP    WIND        PRES    VSBY  WAVE
                 AIR SEA DIR/SP/G                  HT/PER
                 (F)     (DEG/KT/KT) (MB)    (MI)  (FT/S)
CALUMET HARBOR    69     360/ 11/ 15 1013.4R
MICHIGAN CITY     69     350/ 17/ 19   N/A
BURNS HARBOR      70     360/ 16/ 18 1013.9R
SAINT JOSEPH      69      10/ 11/ 16 1013.9
SOUTH LAKE BUOY   67 69   10/ 17/ 21 1013.3R         5/ 6
4 MI NW BRIDGMAN  69 74   40/ 14/ 17 1013.2          5/ 6
MICHIGAN CITY     70 74   10/ 14/ 19   N/A           5/ 5

$$
&&




USA.gov is the U.S. government's official web portal to all federal, state and local government web resources and services.